User: anonymous   Login
Location: Unspecified
(0.0000°N, 0.0000°E)
Time: 01:07:03
(UTC+00:00)
Language:

TIANPING 3B-01 - Orbit

View from above orbital plane
View from above orbital plane
View from above satellite
View from above satellite

Ground track
Ground track

The orbit is defined by the following mean orbital elements,

1 61615U          26145.58062154 +.00000000 +00000-0 +18300-3 0 00006
2 61615  97.5203 166.4356 0004092  71.9280 288.2390 15.01016650    07
Epoch (UTC): 25 May 2026 13:56:05
Eccentricity: 0.0004092
inclination: 97.5203°
perigee height: 561 km
apogee height: 567 km
right ascension of ascending node: 166.4356°
argument of perigee: 71.9280°
revolutions per day: 15.01016650
mean anomaly at epoch: 288.2390°

The dashed part of the orbit path shows where the satellite is in the earth's shadow,  

DLR